W4MLN-1 Weather Reports


time (UTC)temp
C
wind
direction
speed
KPH
gust
KPH
rain 1hr
cm
rain 24hr
cm
rain mn
cm
humidity
%
barometer
mb
20260906082853 16 317 3.2 4.8 0.00 0.08 0.00 96 1015.8
20260906082353 16 302 3.2 4.8 0.00 0.08 0.00 96 1015.7
20260906081852 16 314 3.2 6.4 0.00 0.08 0.00 96 1015.8
20260906081353 16 288 3.2 6.4 0.00 0.08 0.00 96 1015.8
20260906080853 16 324 3.2 6.4 0.00 0.08 0.00 97 1015.9
20260906080353 16 302 3.2 6.4 0.00 0.08 0.00 96 1016.0
20260906075853 16 308 4.8 8.0 0.00 0.08 0.00 96 1016.0
20260906075354 17 295 3.2 8.0 0.00 0.08 0.00 96 1015.9
20260906074853 17 350 3.2 8.0 0.00 0.08 0.00 97 1015.9
20260906074339 16 318 1.6 6.4 0.00 0.08 0.00 96 1015.9
20260906073838 16 316 1.6 4.8 0.00 0.08 0.00 96 1016.1
20260906073323 17 311 3.2 4.8 0.00 0.08 0.00 96 1016.2
20260906072824 16 315 3.2 4.8 0.00 0.08 0.00 96 1016.3
20260906072324 17 273 3.2 3.2 0.00 0.08 0.00 96 1016.3
20260906071824 17 317 3.2 4.8 0.00 0.08 0.00 96 1016.2
20260906071324 17 308 3.2 4.8 0.00 0.08 0.00 97 1016.2
20260906070824 16 320 3.2 4.8 0.00 0.08 0.00 97 1016.2
20260906070324 16 318 3.2 6.4 0.00 0.08 0.00 96 1016.0
20260906065824 16 305 3.2 6.4 0.00 0.08 0.00 96 1016.0
20260906065324 16 315 3.2 6.4 0.00 0.08 0.00 96 1016.0
20260906064823 17 289 3.2 4.8 0.00 0.08 0.00 96 1016.0
20260906064322 17 308 3.2 4.8 0.00 0.08 0.00 96 1016.1
20260906063823 17 315 3.2 4.8 0.00 0.08 0.00 96 1016.3
20260906063323 17 343 3.2 6.4 0.00 0.08 0.00 97 1016.4
20260906062823 17 313 3.2 6.4 0.00 0.08 0.00 96 1016.4
20260906062323 17 298 3.2 6.4 0.00 0.08 0.00 96 1016.4
20260906061823 17 327 4.8 6.4 0.00 0.08 0.00 97 1016.4
20260906061323 17 326 4.8 6.4 0.00 0.08 0.00 96 1016.4
20260906060823 17 302 3.2 6.4 0.00 0.08 0.00 96 1016.5
20260906060323 17 307 3.2 4.8 0.00 0.08 0.00 96 1016.5
20260906055823 17 328 3.2 4.8 0.00 0.08 0.00 96 1016.6
20260906055323 17 316 4.8 8.0 0.00 0.08 0.00 96 1016.7
20260906054810 17 327 3.2 8.0 0.00 0.08 0.00 96 1017.0
20260906054311 17 305 3.2 4.8 0.00 0.08 0.00 96 1017.1
20260906053755 17 310 3.2 4.8 0.00 0.08 0.00 96 1017.1
20260906053256 17 329 3.2 6.4 0.00 0.08 0.00 96 1017.1
20260906052757 17 293 3.2 6.4 0.00 0.08 0.00 96 1017.1
20260906052257 17 300 3.2 4.8 0.00 0.08 0.00 96 1017.1
20260906051756 17 305 3.2 6.4 0.00 0.08 0.00 96 1017.1
20260906051254 17 309 3.2 6.4 0.00 0.08 0.00 96 1017.0
20260906050751 17 346 3.2 6.4 0.00 0.08 0.00 96 1017.0
20260906050251 17 304 3.2 6.4 0.00 0.08 0.00 96 1017.0
20260906045751 17 326 3.2 6.4 0.00 0.08 0.00 96 1017.1
20260906045250 17 287 3.2 6.4 0.00 0.08 0.00 96 1017.1
20260906044751 17 292 3.2 6.4 0.00 0.08 0.00 96 1017.1
20260906044251 17 310 3.2 6.4 0.00 0.08 0.00 96 1017.1
20260906043751 17 272 3.2 6.4 0.00 0.08 0.00 96 1017.1
20260906043252 17 349 4.8 6.4 0.00 0.08 0.00 96 1017.1
20260906042751 17 339 3.2 6.4 0.00 0.08 0.00 96 1017.2
20260906042251 17 11 3.2 6.4 0.00 0.08 0.00 96 1017.2
20260906041749 17 350 3.2 6.4 0.00 0.08 0.00 96 1017.2
20260906041248 17 314 3.2 6.4 0.00 0.08 0.00 95 1017.3
20260906040749 17 301 3.2 6.4 0.00 0.08 0.00 95 1017.2
20260906040248 17 333 3.2 6.4 0.00 0.08 0.00 95 1017.2
20260906035749 17 332 3.2 6.4 0.00 0.08 0.08 95 1017.2
20260906035248 17 308 1.6 3.2 0.00 0.08 0.08 95 1017.1
20260906034749 17 278 1.6 4.8 0.00 0.08 0.08 95 1017.1
20260906034248 17 284 3.2 4.8 0.00 0.08 0.08 95 1017.1
20260906033749 17 284 3.2 8.0 0.00 0.08 0.08 95 1017.1
20260906033249 17 347 4.8 8.0 0.00 0.08 0.08 95 1017.0
20260906032749 17 282 3.2 6.4 0.00 0.08 0.08 95 1017.1
20260906032247 17 350 3.2 4.8 0.00 0.08 0.08 95 1017.0
20260906031746 18 297 3.2 4.8 0.00 0.08 0.08 94 1017.0
20260906031244 18 284 3.2 6.4 0.00 0.08 0.08 95 1016.9
20260906030743 18 308 3.2 6.4 0.00 0.08 0.08 95 1017.1
20260906030244 18 344 1.6 4.8 0.00 0.08 0.08 95 1017.2
20260906025744 18 288 1.6 4.8 0.00 0.08 0.08 95 1017.3
20260906025244 18 246 3.2 6.4 0.00 0.08 0.08 95 1017.3
20260906024744 18 271 3.2 6.4 0.00 0.08 0.08 95 1017.3
20260906024244 18 307 3.2 8.0 0.00 0.08 0.08 95 1017.4
20260906023744 18 313 3.2 8.0 0.00 0.08 0.08 95 1017.3
20260906023244 18 305 3.2 4.8 0.00 0.08 0.08 94 1017.2
20260906022744 18 254 3.2 4.8 0.00 0.08 0.08 94 1017.2
20260906022245 18 290 3.2 3.2 0.00 0.08 0.08 94 1017.2
20260906021744 18 270 1.6 3.2 0.00 0.08 0.08 94 1017.1
20260906021241 18 285 3.2 4.8 0.00 0.08 0.08 94 1017.1
20260906020742 18 285 3.2 6.4 0.00 0.08 0.08 94 1017.3
20260906020241 18 267 3.2 6.4 0.00 0.08 0.08 93 1017.2
20260906015742 18 277 3.2 6.4 0.00 0.08 0.08 94 1017.2
20260906015242 18 282 3.2 4.8 0.00 0.08 0.08 94 1017.1
20260906014742 18 291 3.2 4.8 0.00 0.08 0.08 93 1017.0
20260906014242 18 282 3.2 6.4 0.00 0.08 0.08 93 1017.1
20260906013742 18 255 1.6 6.4 0.00 0.08 0.08 92 1017.1
20260906013243 18 295 1.6 4.8 0.00 0.08 0.08 92 1017.0
20260906012742 19 16 3.2 6.4 0.00 0.08 0.08 92 1016.9
20260906012240 19 277 3.2 6.4 0.00 0.08 0.08 92 1016.9
20260906011739 19 23 3.2 6.4 0.00 0.08 0.08 91 1016.7
20260906011237 19 7 3.2 6.4 0.00 0.08 0.08 91 1016.7
20260906010736 19 266 3.2 6.4 0.00 0.08 0.08 92 1016.6
20260906010237 19 2 3.2 6.4 0.00 0.08 0.08 91 1016.6
20260906005736 19 292 3.2 6.4 0.00 0.08 0.08 91 1016.7
20260906005234 19 293 3.2 6.4 0.00 0.08 0.08 90 1016.6
20260906004733 19 281 1.6 4.8 0.00 0.08 0.08 90 1016.6
20260906004234 19 290 3.2 6.4 0.00 0.08 0.08 90 1016.5
20260906003734 19 291 3.2 6.4 0.00 0.08 0.08 90 1016.5
20260906003234 20 290 3.2 6.4 0.00 0.08 0.08 89 1016.4
20260906002734 20 320 1.6 3.2 0.00 0.08 0.08 89 1016.4
20260906002234 20 308 3.2 6.4 0.00 0.08 0.08 89 1016.3
20260906001735 20 286 3.2 6.4 0.00 0.08 0.08 89 1016.2
20260906001231 20 292 3.2 4.8 0.00 0.08 0.08 88 1016.1
20260906000732 20 281 3.2 4.8 0.00 0.08 0.08 87 1016.2
20260906000233 21 344 3.2 4.8 0.00 0.08 0.08 87 1016.2
20260905235732 21 339 3.2 6.4 0.00 0.08 0.08 86 1016.1
20260905235231 21 0 3.2 6.4 0.00 0.08 0.08 86 1016.1
20260905234732 21 305 1.6 6.4 0.00 0.08 0.08 83 1016.0
20260905234233 22 351 1.6 6.4 0.00 0.08 0.08 82 1015.9
20260905233732 22 0 0.0 4.8 0.00 0.08 0.08 79 1015.9
20260905233233 23 321 0.0 4.8 0.00 0.08 0.08 76 1015.9
20260905232732 24 0 0.0 1.6 0.00 0.08 0.08 75 1016.0
20260905232232 25 0 0.0 1.6 0.00 0.08 0.08 73 1015.9
20260905231732 25 0 0.0 1.6 0.00 0.08 0.08 71 1015.8
20260905231231 26 322 0.0 3.2 0.00 0.08 0.08 65 1015.9
20260905230730 26 0 0.0 3.2 0.00 0.08 0.08 62 1015.9
20260905230231 27 0 0.0 3.2 0.00 0.08 0.08 61 1015.9
20260905225729 27 0 0.0 3.2 0.00 0.08 0.08 60 1015.9
20260905225230 27 0 1.6 4.8 0.00 0.08 0.08 60 1015.9
20260905224729 27 0 1.6 4.8 0.00 0.08 0.08 57 1015.9
20260905224230 27 0 1.6 3.2 0.00 0.08 0.08 58 1016.0
20260905223730 27 0 1.6 4.8 0.00 0.08 0.08 58 1016.0
20260905223230 27 0 1.6 6.4 0.00 0.08 0.08 57 1016.0
20260905222730 27 351 1.6 8.0 0.00 0.08 0.08 55 1016.1
20260905222228 27 322 3.2 8.0 0.00 0.08 0.08 54 1016.0
20260905221724 27 338 3.2 8.0 0.00 0.08 0.08 54 1015.9
20260905221225 28 321 3.2 8.0 0.00 0.08 0.08 54 1015.9
20260905220724 28 268 3.2 6.4 0.00 0.08 0.08 54 1016.0
20260905220225 28 264 1.6 6.4 0.00 0.08 0.08 52 1015.9
20260905215725 28 246 1.6 6.4 0.00 0.08 0.08 50 1015.9
20260905215225 28 273 3.2 9.7 0.00 0.08 0.08 53 1016.0
20260905214724 28 304 3.2 9.7 0.00 0.08 0.08 53 1015.9
20260905214225 28 261 3.2 6.4 0.00 0.08 0.08 51 1015.8
20260905213726 28 130 3.2 8.0 0.00 0.08 0.08 55 1015.9
20260905213225 28 321 3.2 8.0 0.00 0.08 0.08 52 1015.9
20260905212723 28 342 3.2 8.0 0.00 0.08 0.08 57 1015.8
20260905212222 27 262 3.2 9.7 0.00 0.10 0.08 59 1015.7
20260905211720 27 0 3.2 9.7 0.00 0.10 0.08 59 1015.8
20260905211220 27 160 3.2 9.7 0.00 0.18 0.08 61 1015.8
20260905210720 27 245 1.6 8.0 0.00 0.20 0.08 64 1015.9
20260905210220 27 190 3.2 12.9 0.00 0.20 0.08 66 1015.9
20260905205720 26 228 3.2 12.9 0.00 0.20 0.08 63 1015.9
20260905205220 26 324 4.8 12.9 0.00 0.20 0.08 63 1015.9
20260905204720 26 287 3.2 9.7 0.00 0.20 0.08 65 1015.9
20260905204220 26 236 1.6 9.7 0.00 0.20 0.08 65 1015.9
20260905203720 26 251 1.6 6.4 0.00 0.20 0.08 66 1016.0
20260905203220 26 239 1.6 8.0 0.00 0.20 0.08 65 1016.0
20260905202718 25 144 1.6 8.0 0.00 0.20 0.08 67 1015.9
20260905202215 25 191 3.2 11.3 0.00 0.20 0.08 71 1016.0
20260905201712 25 120 3.2 11.3 0.00 0.20 0.08 69 1016.0
20260905201211 25 250 3.2 11.3 0.00 0.20 0.08 69 1015.9
20260905200709 25 185 3.2 11.3 0.00 0.20 0.08 69 1015.9
20260905200209 24 221 3.2 11.3 0.00 0.20 0.08 73 1016.0
20260905195709 23 85 3.2 9.7 0.00 0.20 0.08 74 1015.9
20260905195209 23 288 3.2 9.7 0.00 0.20 0.08 74 1016.0
20260905194709 23 155 1.6 6.4 0.00 0.20 0.08 75 1016.0
20260905194209 23 0 1.6 6.4 0.00 0.20 0.08 77 1015.9
20260905193709 23 0 1.6 4.8 0.00 0.20 0.08 77 1015.9
20260905193209 22 0 3.2 8.0 0.00 0.20 0.08 77 1016.0
20260905192709 22 181 3.2 8.0 0.00 0.20 0.08 77 1015.9
20260905192206 22 307 1.6 6.4 0.00 0.20 0.08 78 1016.0
20260905191707 22 122 1.6 9.7 0.00 0.20 0.08 78 1016.0
20260905191207 22 256 1.6 9.7 0.00 0.20 0.08 78 1015.9
20260905190707 22 154 3.2 12.9 0.00 0.20 0.08 80 1016.0
20260905190203 22 113 3.2 12.9 0.00 0.20 0.08 80 1016.0
20260905185704 22 231 3.2 8.0 0.00 0.20 0.08 80 1016.0
20260905185204 22 326 3.2 11.3 0.00 0.20 0.08 81 1016.2
20260905184704 21 253 3.2 11.3 0.00 0.20 0.08 82 1016.3
20260905184203 21 261 3.2 8.0 0.00 0.20 0.08 82 1016.3
20260905183704 21 261 3.2 8.0 0.00 0.20 0.08 83 1016.5
20260905183202 21 312 3.2 12.9 0.00 0.20 0.08 84 1016.9
20260905182702 21 287 3.2 12.9 0.03 0.20 0.08 84 1017.0
20260905182202 21 270 1.6 12.9 0.05 0.20 0.08 85 1017.1
20260905181702 21 315 1.6 6.4 0.05 0.20 0.08 85 1017.2
20260905181202 21 167 1.6 6.4 0.08 0.20 0.08 85 1017.3
20260905180702 21 359 1.6 6.4 0.08 0.20 0.08 86 1017.5
20260905180202 20 267 3.2 6.4 0.08 0.20 0.08 89 1017.7
20260905175702 20 274 3.2 6.4 0.08 0.20 0.08 90 1017.7
20260905175202 20 281 3.2 6.4 0.08 0.20 0.08 90 1017.6
20260905174703 20 279 1.6 6.4 0.08 0.20 0.08 89 1017.8
20260905174202 20 297 1.6 4.8 0.08 0.20 0.08 89 1018.0
20260905173700 20 334 1.6 4.8 0.08 0.20 0.08 87 1018.2
20260905173159 21 214 1.6 6.4 0.08 0.20 0.08 86 1018.2
20260905172659 21 312 1.6 6.4 0.05 0.18 0.05 83 1018.4
20260905172159 21 0 0.0 3.2 0.05 0.18 0.05 84 1018.7
20260905171657 21 58 0.0 3.2 0.03 0.15 0.03 84 1019.0
20260905171156 21 0 0.0 3.2 0.00 0.15 0.00 83 1019.2
20260905170654 21 336 0.0 3.2 0.00 0.15 0.00 82 1019.1
20260905170153 21 0 0.0 1.6 0.00 0.13 0.00 81 1019.3
20260905165654 22 0 0.0 3.2 0.00 0.13 0.00 80 1019.1
20260905165154 22 0 0.0 3.2 0.00 0.13 0.00 79 1019.2
20260905164654 22 305 1.6 9.7 0.00 0.13 0.00 76 1019.3
20260905164154 22 47 4.8 12.9 0.00 0.13 0.00 74 1019.3
20260905163655 23 296 6.4 14.5 0.00 0.13 0.00 71 1019.5
20260905163154 23 143 6.4 17.7 0.00 0.13 0.00 68 1019.5
20260905162652 25 284 9.7 24.1 0.00 0.13 0.00 65 1019.7
20260905162151 25 323 9.7 24.1 0.00 0.13 0.00 64 1019.7
20260905161652 26 297 6.4 22.5 0.00 0.13 0.00 66 1019.3
20260905161151 26 6 4.8 14.5 0.00 0.13 0.00 70 1018.9
20260905160652 27 334 4.8 14.5 0.00 0.13 0.00 70 1018.6
20260905160152 27 253 4.8 11.3 0.00 0.13 0.00 68 1018.5
20260905155652 27 318 6.4 12.9 0.00 0.13 0.00 68 1018.3
20260905155152 27 313 6.4 12.9 0.00 0.13 0.00 67 1018.5
20260905154652 27 351 6.4 16.1 0.00 0.13 0.00 68 1018.5
20260905154152 28 300 4.8 16.1 0.00 0.13 0.00 67 1018.4
20260905153652 28 171 3.2 14.5 0.00 0.13 0.00 66 1018.5
20260905153152 28 0 4.8 12.9 0.00 0.13 0.00 66 1018.6
20260905152649 27 228 6.4 12.9 0.00 0.13 0.00 68 1018.6
20260905152150 27 34 6.4 16.1 0.00 0.13 0.00 68 1018.5
20260905151649 27 293 6.4 16.1 0.00 0.13 0.00 69 1018.5
20260905151150 27 316 4.8 11.3 0.00 0.13 0.00 71 1018.5
20260905150649 26 309 3.2 6.4 0.00 0.13 0.00 74 1018.3
20260905150150 26 2 3.2 6.4 0.00 0.13 0.00 74 1018.2
20260905145651 26 348 4.8 11.3 0.00 0.13 0.00 73 1018.2
20260905145150 27 299 4.8 11.3 0.00 0.13 0.00 73 1018.0
20260905144650 27 27 4.8 14.5 0.00 0.13 0.00 71 1017.9
20260905144150 27 237 3.2 14.5 0.00 0.13 0.00 70 1017.9
20260905143650 27 176 1.6 9.7 0.00 0.13 0.00 70 1018.0
20260905143150 27 0 1.6 6.4 0.00 0.13 0.00 74 1018.2
20260905142650 26 190 1.6 6.4 0.00 0.13 0.00 74 1018.2
20260905142151 26 293 1.6 6.4 0.00 0.13 0.00 76 1018.3
20260905141648 25 44 1.6 4.8 0.00 0.13 0.00 78 1018.4
20260905141148 25 1 3.2 6.4 0.00 0.13 0.00 80 1018.3
20260905140648 25 0 3.2 6.4 0.00 0.13 0.00 80 1018.4
20260905140149 24 29 3.2 6.4 0.00 0.13 0.00 83 1018.4
20260905135648 24 70 1.6 6.4 0.00 0.13 0.00 81 1018.3
20260905135148 23 134 3.2 8.0 0.00 0.13 0.00 85 1018.3
20260905134648 23 39 3.2 8.0 0.00 0.13 0.00 87 1018.3
20260905134148 22 63 3.2 6.4 0.00 0.13 0.00 86 1018.3
20260905133645 22 41 3.2 6.4 0.00 0.13 0.00 88 1018.3
20260905133146 21 29 3.2 6.4 0.00 0.13 0.00 91 1018.3
20260905132642 21 36 3.2 6.4 0.00 0.13 0.00 92 1018.3
20260905132143 21 20 3.2 6.4 0.00 0.13 0.00 92 1018.4
20260905131642 21 33 4.8 6.4 0.00 0.13 0.00 92 1018.5
20260905131143 20 323 6.4 6.4 0.00 0.13 0.00 92 1018.6
20260905130643 20 346 4.8 6.4 0.00 0.13 0.00 93 1018.7
20260905130143 19 326 4.8 6.4 0.00 0.13 0.00 94 1018.7
20260905125643 19 327 4.8 6.4 0.00 0.13 0.00 95 1018.8
20260905125143 18 315 3.2 4.8 0.00 0.13 0.00 96 1018.7
20260905124643 18 326 1.6 4.8 0.00 0.13 0.00 96 1018.8
20260905124141 18 316 3.2 4.8 0.00 0.13 0.00 96 1018.9
20260905123642 18 352 3.2 4.8 0.00 0.13 0.00 97 1018.8
20260905123129 17 310 3.2 6.4 0.00 0.13 0.00 97 1018.8
20260905122628 17 308 3.2 6.4 0.00 0.13 0.00 97 1018.8
20260905122114 17 305 3.2 6.4 0.00 0.13 0.00 97 1018.8
20260905121614 17 310 3.2 4.8 0.00 0.13 0.00 97 1018.7
20260905121114 17 318 3.2 4.8 0.00 0.13 0.00 97 1018.7
20260905120614 17 346 3.2 4.8 0.00 0.13 0.00 97 1018.6
20260905120114 17 11 1.6 4.8 0.00 0.13 0.00 97 1018.5
20260905115614 16 11 3.2 4.8 0.00 0.13 0.00 97 1018.6
20260905115114 16 327 3.2 4.8 0.00 0.13 0.00 97 1018.6
20260905114615 16 327 3.2 4.8 0.00 0.13 0.00 97 1018.6
20260905114115 16 323 3.2 4.8 0.00 0.13 0.00 97 1018.5
20260905113600 16 313 3.2 4.8 0.00 0.13 0.00 97 1018.5
20260905113100 16 330 3.2 6.4 0.00 0.13 0.00 97 1018.4
20260905112545 16 338 3.2 6.4 0.00 0.13 0.00 97 1018.4
20260905112045 16 287 3.2 4.8 0.00 0.13 0.00 97 1018.4
20260905111545 16 302 3.2 6.4 0.00 0.13 0.00 97 1018.3
20260905111045 16 269 3.2 6.4 0.00 0.13 0.00 97 1018.3
20260905110545 16 317 3.2 6.4 0.00 0.13 0.00 97 1018.3
20260905110046 16 278 3.2 6.4 0.00 0.13 0.00 97 1018.2
20260905105545 16 309 3.2 6.4 0.00 0.13 0.00 97 1018.3
20260905105046 16 315 3.2 6.4 0.00 0.13 0.00 97 1018.2
20260905104543 16 314 3.2 4.8 0.00 0.13 0.00 97 1018.2
20260905104044 16 297 3.2 6.4 0.00 0.13 0.00 97 1018.0
20260905103531 16 315 3.2 6.4 0.00 0.13 0.00 97 1018.0
20260905103031 16 315 3.2 6.4 0.00 0.13 0.00 97 1018.0
20260905102530 16 300 4.8 6.4 0.00 0.13 0.00 97 1018.2
20260905102031 16 294 3.2 6.4 0.00 0.13 0.00 97 1018.2
20260905101531 17 326 4.8 6.4 0.00 0.13 0.00 97 1018.0
20260905101031 17 321 4.8 6.4 0.00 0.13 0.00 97 1018.0
20260905100532 17 286 3.2 6.4 0.00 0.13 0.00 97 1018.0
20260905100032 17 318 3.2 6.4 0.00 0.13 0.00 97 1018.0
20260905095531 17 315 3.2 6.4 0.00 0.13 0.00 97 1017.9
20260905095017 17 333 4.8 6.4 0.00 0.13 0.00 97 1018.0
20260905094517 17 339 4.8 6.4 0.00 0.13 0.00 97 1017.9
20260905094001 17 341 4.8 6.4 0.00 0.13 0.00 97 1017.9
20260905093502 17 324 4.8 6.4 0.00 0.13 0.00 97 1017.9
20260905093002 17 323 4.8 6.4 0.00 0.13 0.00 97 1017.9
20260905092502 17 313 3.2 6.4 0.00 0.13 0.00 97 1017.8
20260905092002 17 299 4.8 6.4 0.00 0.13 0.00 97 1017.7
20260905091502 17 329 3.2 6.4 0.00 0.13 0.00 97 1017.8
20260905091002 17 322 3.2 4.8 0.00 0.13 0.00 97 1017.8
20260905090503 17 327 4.8 6.4 0.00 0.13 0.00 97 1017.8
20260905090002 17 332 3.2 6.4 0.00 0.13 0.00 97 1017.8
20260905085502 17 299 3.2 4.8 0.00 0.13 0.00 97 1017.9
20260905085003 17 311 3.2 4.8 0.00 0.13 0.00 97 1017.9
20260905084502 17 14 3.2 6.4 0.00 0.13 0.00 97 1017.9
20260905083948 17 330 3.2 6.4 0.00 0.13 0.00 97 1017.9
20260905083448 17 324 3.2 4.8 0.00 0.13 0.00 97 1017.9